This is the latest recevied weather packets stored in our database for station/object F5MAP-5. If no packets are shown the sender has not sent any weather packets the latest 10 day(s).
| Time | Temp. | Humidity | Pressure | Rain* | Wind** | Luminosity | Snow |
|---|---|---|---|---|---|---|---|
| 1787935333 | 24.44° C | 54% | 1013.5 hPa | 0 mm | - | 83 W/m² | - |
| 1787934732 | 24.44° C | 53% | 1013.4 hPa | 0 mm | - | 90 W/m² | - |
| 1787934133 | 24.44° C | 54% | 1013.3 hPa | 0 mm | - | 93 W/m² | - |
| 1787933532 | 24.44° C | 52% | 1013.3 hPa | 0 mm | - | 98 W/m² | - |
| 1787932933 | 24.44° C | 52% | 1013.3 hPa | 0 mm | - | 88 W/m² | - |
| 1787932332 | 24.44° C | 53% | 1013.3 hPa | 0 mm | - | 113 W/m² | - |
| 1787931732 | 24.44° C | 52% | 1013.3 hPa | 0 mm | - | 113 W/m² | - |
| 1787931132 | 25° C | 52% | 1013.3 hPa | 0 mm | - | 123 W/m² | - |
| 1787930532 | 25° C | 52% | 1012.8 hPa | 0 mm | - | 95 W/m² | - |
| 1787929932 | 25° C | 52% | 1012.7 hPa | 0 mm | - | 47 W/m² | - |
| 1787929332 | 25° C | 51% | 1012.8 hPa | 0 mm | - | 88 W/m² | - |
| 1787928732 | 25.56° C | 50% | 1013 hPa | 0 mm | - | 56 W/m² | - |
| 1787928133 | 25.56° C | 49% | 1012.8 hPa | 0 mm | - | 77 W/m² | - |
| 1787927532 | 26.11° C | 48% | 1012.9 hPa | 0 mm | - | 86 W/m² | - |
| 1787926932 | 26.11° C | 46% | 1012.8 hPa | 0 mm | - | 211 W/m² | - |
| 1787926332 | 26.67° C | 46% | 1012.9 hPa | 0 mm | - | 135 W/m² | - |
| 1787925733 | 26.67° C | 48% | 1012.7 hPa | 0 mm | - | 135 W/m² | - |
| 1787925132 | 26.67° C | 50% | 1012.7 hPa | 0 mm | - | 271 W/m² | - |
| 1787924532 | 26.67° C | 54% | 1012.9 hPa | 0 mm | - | 283 W/m² | - |
| 1787923932 | 27.22° C | 53% | 1012.8 hPa | 0 mm | - | 202 W/m² | - |
| 1787923333 | 27.22° C | 55% | 1012.7 hPa | 0 mm | - | 659 W/m² | - |
| 1787922732 | 27.22° C | 57% | 1012.4 hPa | 0 mm | - | 722 W/m² | - |
| 1787922132 | 27.22° C | 59% | 1012.5 hPa | 0 mm | - | 775 W/m² | - |
| 1787921532 | 26.67° C | 61% | 1012.7 hPa | 0 mm | - | 751 W/m² | - |
| 1787920932 | 26.11° C | 64% | 1012.9 hPa | 0 mm | - | 744 W/m² | - |
* Rain latest hour (hover to see other rain measurements)
** Current wind speed in m/s (hover to see current wind gust speed)